Location: Moscow
(55.7500°N, 37.5830°E)
Time: 17:54:33
(UTC+03:00)

A-11 Canister half - Pass Details

Date: 04 December 2021
Orbit: 1516 x 1684 km, 47.2° (Epoch: 19 January)

Event Time Altitude Azimuth Distance (km) Brightness Sun altitude
Rises 10:20:16 0° 257° (WSW) 4,822 11.4 7.9°
Reaches altitude 10° 10:23:25 10° 253° (WSW) 3,859 11.0 8.1°
Maximum altitude 10:32:53 53° 181° (S) 1,970 10.3 8.7°
Drops below altitude 10° 10:42:35 10° 109° (ESE) 3,945 11.9 9.3°
Sets 10:45:51 0° 105° (ESE) 4,937 12.2 9.4°
